Regional Weather Roundup
Issued by NWS

Home | Current Version | Previous Version | Text Only | Print | Product List | Glossary On
Versions: 1 2 3 4 5 6 7 8 9 10 11 12 13 14 15 16 17 18 19 20 21 22 23 24 25 26 27 28 29 30 31 32 33 34 35 36 37 38 39 40 41 42 43 44 45 46 47 48 49 50
000
ASUS43 KLOT 280506
RWRIL

ILLINOIS REGIONAL WEATHER ROUNDUP
NATIONAL WEATHER SERVICE CHICAGO/ROMEOVILLE IL
1100 PM CST TUE JAN 27 2015

NOTE: "FAIR" INDICATES FEW OR NO CLOUDS BELOW 12,000 FEET WITH NO
SIGNIFICANT WEATHER AND/OR OBSTRUCTIONS TO VISIBILITY.

* THESE STATIONS ARE NOT UNDER NWS QUALITY CONTROL. THEY ALSO MAY NOT
  REPORT WEATHER SUCH AS PRECIPITATION OR FOG.

ILZ001-002-007-009-015-016-024-280600-
NORTHWEST ILLINOIS

CITY           SKY/WX    TMP DP  RH WIND       PRES   REMARKS
MOLINE         CLOUDY    27  22  81 SE7       30.25R WCI  19
STERLING*      CLOUDY    28  21  74 SE5       30.25S WCI  23
SAVANNA*       CLOUDY    29  25  85 CALM      30.25R FOG
$$

ILZ003-004-008-010-011-017-018-280600-
NORTH CENTRAL ILLINOIS

CITY           SKY/WX    TMP DP  RH WIND       PRES   REMARKS
ROCKFORD       CLOUDY    24  18  77 SE5       30.27R WCI  18
FREEPORT*      CLOUDY    27  23  84 CALM      30.26S
ROCHELLE*      CLOUDY    19  16  88 CALM      30.26R
DE KALB*       PTCLDY    19  15  86 SE3       30.26R
PERU*          PTCLDY    23  21  93 CALM      30.27R
$$

ILZ005-006-012>014-019>023-280600-
NORTHEAST ILLINOIS

CITY           SKY/WX    TMP DP  RH WIND       PRES   REMARKS
CHICAGO-OHARE  MOCLDY    21  16  81 CALM      30.26R
CHICAGO-MIDWAY MOCLDY    25  18  74 CALM      30.26S
AURORA         PTCLDY    19  13  77 CALM      30.26S
LANSING*       CLEAR     19  17  94 CALM      30.27R
JOLIET*        PTCLDY    15  13  92 CALM      30.27S
WAUKEGAN       CLOUDY    24  19  81 CALM      30.25S
DUPAGE AIRPORT PTCLDY    19  14  81 CALM      30.26R
KANKAKEE*      CLEAR     19  16  88 CALM      30.28R
WHEELING       PTCLDY    22  17  81 CALM      30.28R
MORRIS*        PTCLDY    23  19  84 CALM      30.26S
ROMEOVILLE*    PTCLDY    22  17  78 CALM      30.26S
NORTHERLY ISL    N/A     28  19  69 NE6         N/A  WCI  22
$$

LMZ740>746-280600-
SOUTHERN LAKE MICHIGAN

STATION/POSITION SKY/WX   TEMP    WIND        PRES    VSBY  WAVE
                          AIR SEA DIR/SP/G                  HT/PER
                          (F)     (DEG/KT/KT) (MB)    (MI)  (FT/S)
WAUKEGAN HARBOR            27        CALM       N/A
HARRISON CRIB              27      70/  3/  6   N/A
BURNHAM HARBOR             27      30/  2/  6   N/A
CALUMET HARBOR             26      30/  3/  5   N/A
MICHIGAN CITY              22     100/  5/  6   N/A
$$

ILZ025>027-034>036-040-047-049-050-058-095>099-280600-
WEST-CENTRAL ILLINOIS

CITY           SKY/WX    TMP DP  RH WIND       PRES   REMARKS
QUINCY         CLEAR     28  25  88 E8        30.22R FOG     WCI  20
GALESBURG*     CLOUDY    28  25  89 SE5       30.24R WCI  23
MACOMB*        CLOUDY    29  27  92 SE6       30.26S WCI  23
JACKSONVILLE*  CLOUDY    32  28  85 E7        30.25R WCI  26
PITTSFIELD*    CLOUDY    29  27  92 E6        30.24S FOG     WCI  23
$$

ILZ028>032-037-038-041>044-048-051>054-059>061-280600-
CENTRAL ILLINOIS

CITY           SKY/WX    TMP DP  RH WIND       PRES   REMARKS
PONTIAC        CLOUDY    28  25  86 E5        30.27S WCI  23
BLOOMINGTON    CLOUDY    29  26  88 SE6       30.26R WCI  23
DECATUR        PTCLDY    25  22  88 CALM      30.27R FOG
PEORIA         CLOUDY    31  24  75 SE7       30.25F WCI  24
LACON*         CLOUDY    29  24  81 S3        30.26R
LINCOLN*       MOCLDY    31  25  79 SE5       30.27S WCI  26
SPRINGFIELD    PTCLDY    28  23  81 E3        30.26S
TAYLORVILLE    CLEAR     28  25  86 E5        30.26R WCI  23
$$

ILZ033-039-045-046-055>057-062-063-280600-
EAST-CENTRAL ILLINOIS

CITY           SKY/WX    TMP DP  RH WIND       PRES   REMARKS
CHAMPAIGN      CLEAR     22  18  85 CALM      30.27R
DANVILLE*      CLEAR     20  17  90 CALM      30.24R
RANTOUL*       CLEAR     23  21  91 N3        30.27R
MATTOON        CLEAR     23  20  88 CALM      30.26R
PARIS*         CLEAR     20  19  96 CALM      30.28R
$$

ILZ079-100>102-280600-
SOUTHWEST ILLINOIS

CITY           SKY/WX    TMP DP  RH WIND       PRES   REMARKS
ALTON          CLEAR     28  27  96 E5        30.25S FOG     WCI  22
BELLEVILLE     CLEAR     26  26  99 E2        30.25S
CAHOKIA*       CLEAR     28  26  92 CALM      30.25F
SPARTA*        CLEAR     28  26  93 CALM      30.26S
$$

ILZ064>066-069>071-074>076-080>082-084>086-088>090-092>094-280600-
SOUTH-CENTRAL ILLINOIS

CITY           SKY/WX    TMP DP  RH WIND       PRES   REMARKS
CARBONDALE     CLEAR     29  25  85 CALM      30.26R
CAIRO*         CLEAR     34  29  82 E5        30.26R WCI  30
EFFINGHAM*     CLEAR     28  22  76 CALM      30.29R
MARION         CLEAR     30  28  93 NE5       30.27R WCI  25
MT. VERNON     CLEAR     27  21  80 NE5       30.27R WCI  21
CENTRALIA*     CLEAR     28  25  87 CALM      30.26R
SALEM*         CLEAR     31  27  83 E5        30.26R WCI  26
METROPOLIS*    CLEAR     31  28  91 CALM      30.25S
$$

ILZ067-068-072-073-078-083-087-091-280600-
SOUTHEAST ILLINOIS

CITY           SKY/WX    TMP DP  RH WIND       PRES   REMARKS
LAWRENCEVILLE  CLOUDY    29  24  82 NE5       30.28R WCI  24
FLORA*         CLEAR     28  26  93 CALM      30.28R
FAIRFIELD*     CLEAR     28  26  92 CALM      30.26S
HARRISBURG*    CLEAR     30  29  96 NE3       30.28R
ROBINSON*      CLEAR     25  23  93 N3        30.28S
CARMI*         MOCLDY    32  30  94 N5        30.27S WCI  27
$$

ABBREVIATIONS USED IN REMARKS
   TC - TEMPERATURE IN CELSIUS
  WCI - WIND CHILL INDEX
   HX - HEAT INDEX
  VSB - VISIBILITY
$$



USA.gov is the U.S. government's official web portal to all federal, state and local government web resources and services.